| time (UTC) | temp C | wind direction | speed KPH | gust KPH | rain 1hr cm | rain 24hr cm | rain mn cm | humidity % | barometer mb |
| 20260503220601 | 16 | 276 | 4.8 | 4.8 | 0.00 | 0.00 | 0.00 | 31 | 1010.6 |
| 20260503220058 | 16 | 188 | 4.8 | 8.0 | 0.00 | 0.00 | 0.00 | 30 | 1010.6 |
| 20260503215555 | 16 | 252 | 1.6 | 3.2 | 0.00 | 0.00 | 0.00 | 30 | 1010.7 |
| 20260503215052 | 16 | 214 | 3.2 | 3.2 | 0.00 | 0.00 | 0.00 | 30 | 1010.7 |
| 20260503214550 | 16 | 203 | 3.2 | 3.2 | 0.00 | 0.00 | 0.00 | 31 | 1010.7 |
| 20260503214046 | 16 | 251 | 4.8 | 4.8 | 0.00 | 0.00 | 0.00 | 31 | 1010.7 |
| 20260503213545 | 15 | 2 | 9.7 | 14.5 | 0.00 | 0.00 | 0.00 | 30 | 1010.5 |
| 20260503213041 | 16 | 306 | 4.8 | 4.8 | 0.00 | 0.00 | 0.00 | 30 | 1010.7 |
| 20260503212539 | 16 | 32 | 1.6 | 3.2 | 0.00 | 0.00 | 0.00 | 32 | 1010.5 |
| 20260503212036 | 16 | 270 | 4.8 | 9.7 | 0.00 | 0.00 | 0.00 | 31 | 1010.5 |
| 20260503211533 | 15 | 212 | 3.2 | 4.8 | 0.00 | 0.00 | 0.00 | 32 | 1010.7 |
| 20260503211028 | 16 | 240 | 4.8 | 8.0 | 0.00 | 0.00 | 0.00 | 30 | 1010.7 |
| 20260503210526 | 15 | 54 | 4.8 | 4.8 | 0.00 | 0.00 | 0.00 | 30 | 1010.6 |
| 20260503210021 | 15 | 244 | 9.7 | 12.9 | 0.00 | 0.00 | 0.00 | 30 | 1010.6 |
| 20260503205518 | 15 | 240 | 4.8 | 8.0 | 0.00 | 0.00 | 0.00 | 33 | 1010.7 |
| 20260503205015 | 15 | 286 | 12.9 | 17.7 | 0.00 | 0.00 | 0.00 | 29 | 1010.7 |
| 20260503204512 | 15 | 167 | 6.4 | 9.7 | 0.00 | 0.00 | 0.00 | 32 | 1010.6 |
| 20260503204009 | 15 | 295 | 9.7 | 12.9 | 0.00 | 0.00 | 0.00 | 29 | 1010.4 |
| 20260503203506 | 14 | 276 | 4.8 | 11.3 | 0.00 | 0.00 | 0.00 | 31 | 1010.4 |
| 20260503203003 | 15 | 15 | 4.8 | 9.7 | 0.00 | 0.00 | 0.00 | 31 | 1010.7 |
| 20260503202501 | 15 | 259 | 6.4 | 14.5 | 0.00 | 0.00 | 0.00 | 30 | 1010.5 |
| 20260503201959 | 15 | 19 | 8.0 | 12.9 | 0.00 | 0.00 | 0.00 | 30 | 1010.7 |
| 20260503201456 | 15 | 231 | 4.8 | 8.0 | 0.00 | 0.00 | 0.00 | 31 | 1010.7 |
| 20260503200953 | 16 | 215 | 3.2 | 4.8 | 0.00 | 0.00 | 0.00 | 31 | 1010.7 |
| 20260503200449 | 15 | 272 | 8.0 | 9.7 | 0.00 | 0.00 | 0.00 | 30 | 1010.8 |
| 20260503195946 | 15 | 247 | 8.0 | 12.9 | 0.00 | 0.00 | 0.00 | 31 | 1010.7 |
| 20260503195444 | 14 | 206 | 4.8 | 8.0 | 0.00 | 0.00 | 0.00 | 32 | 1010.8 |
| 20260503194940 | 15 | 297 | 9.7 | 16.1 | 0.00 | 0.00 | 0.00 | 31 | 1011.0 |
| 20260503194437 | 15 | 55 | 8.0 | 11.3 | 0.00 | 0.00 | 0.00 | 32 | 1010.9 |
| 20260503193932 | 15 | 45 | 9.7 | 12.9 | 0.00 | 0.00 | 0.00 | 31 | 1011.1 |
| 20260503193428 | 15 | 10 | 4.8 | 4.8 | 0.00 | 0.00 | 0.00 | 33 | 1010.8 |
| 20260503192923 | 15 | 215 | 1.6 | 1.6 | 0.00 | 0.00 | 0.00 | 33 | 1010.8 |
| 20260503192420 | 15 | 258 | 3.2 | 3.2 | 0.00 | 0.00 | 0.00 | 33 | 1011.2 |
| 20260503191916 | 15 | 22 | 8.0 | 11.3 | 0.00 | 0.00 | 0.00 | 31 | 1011.1 |
| 20260503191414 | 15 | 51 | 8.0 | 11.3 | 0.00 | 0.00 | 0.00 | 31 | 1011.2 |
| 20260503190910 | 15 | 24 | 9.7 | 11.3 | 0.00 | 0.00 | 0.00 | 31 | 1011.2 |
| 20260503190408 | 15 | 291 | 4.8 | 8.0 | 0.00 | 0.00 | 0.00 | 32 | 1011.3 |
| 20260503185904 | 14 | 305 | 6.4 | 9.7 | 0.00 | 0.00 | 0.00 | 33 | 1011.1 |
| 20260503185401 | 14 | 280 | 4.8 | 8.0 | 0.00 | 0.00 | 0.00 | 33 | 1010.9 |
| 20260503184900 | 15 | 295 | 9.7 | 16.1 | 0.00 | 0.00 | 0.00 | 32 | 1011.5 |
| 20260503184356 | 14 | 269 | 11.3 | 14.5 | 0.00 | 0.00 | 0.00 | 32 | 1011.5 |
| 20260503183853 | 13 | 278 | 4.8 | 4.8 | 0.00 | 0.00 | 0.00 | 35 | 1011.3 |
| 20260503183350 | 13 | 37 | 6.4 | 9.7 | 0.00 | 0.00 | 0.00 | 33 | 1011.7 |
| 20260503182847 | 13 | 352 | 4.8 | 4.8 | 0.00 | 0.00 | 0.00 | 33 | 1011.7 |
| 20260503182346 | 13 | 223 | 8.0 | 12.9 | 0.00 | 0.00 | 0.00 | 34 | 1011.7 |
| 20260503181842 | 14 | 214 | 1.6 | 3.2 | 0.00 | 0.00 | 0.00 | 37 | 1011.8 |
| 20260503181340 | 13 | 215 | 0.0 | 0.0 | 0.00 | 0.00 | 0.00 | 39 | 1011.7 |
| 20260503180836 | 14 | 15 | 11.3 | 14.5 | 0.00 | 0.00 | 0.00 | 34 | 1011.6 |
| 20260503180334 | 13 | 246 | 11.3 | 14.5 | 0.00 | 0.00 | 0.00 | 34 | 1011.7 |
| 20260503175830 | 13 | 215 | 3.2 | 3.2 | 0.00 | 0.00 | 0.00 | 37 | 1011.7 |
| 20260503175328 | 12 | 224 | 4.8 | 4.8 | 0.00 | 0.00 | 0.00 | 39 | 1011.8 |
| 20260503174823 | 12 | 21 | 8.0 | 9.7 | 0.00 | 0.00 | 0.00 | 39 | 1012.0 |
| 20260503174322 | 12 | 231 | 12.9 | 14.5 | 0.00 | 0.00 | 0.00 | 39 | 1011.8 |
| 20260503173817 | 12 | 346 | 6.4 | 11.3 | 0.00 | 0.00 | 0.00 | 37 | 1012.0 |
| 20260503173313 | 13 | 21 | 3.2 | 3.2 | 0.00 | 0.00 | 0.00 | 43 | 1012.1 |
| 20260503172810 | 12 | 150 | 6.4 | 8.0 | 0.00 | 0.00 | 0.00 | 42 | 1012.3 |
| 20260503172308 | 12 | 279 | 8.0 | 11.3 | 0.00 | 0.00 | 0.00 | 38 | 1012.0 |
| 20260503171803 | 11 | 57 | 6.4 | 9.7 | 0.00 | 0.00 | 0.00 | 39 | 1012.1 |
| 20260503171300 | 12 | 28 | 12.9 | 14.5 | 0.00 | 0.00 | 0.00 | 37 | 1012.3 |
| 20260503170758 | 12 | 25 | 9.7 | 16.1 | 0.00 | 0.00 | 0.00 | 39 | 1012.2 |
| 20260503170254 | 11 | 263 | 8.0 | 12.9 | 0.00 | 0.00 | 0.00 | 41 | 1012.2 |
| 20260503160217 | 11 | 311 | 8.0 | 11.3 | 0.00 | 0.00 | 0.00 | 41 | 1012.5 |
| 20260503150647 | 10 | 329 | 6.4 | 8.0 | 0.00 | 0.00 | 0.00 | 44 | 1012.7 |
| 20260503150143 | 10 | 48 | 4.8 | 4.8 | 0.00 | 0.00 | 0.00 | 46 | 1012.6 |
| 20260503140107 | 10 | 231 | 11.3 | 20.9 | 0.00 | 0.00 | 0.00 | 48 | 1012.8 |
| 20260503131037 | 8 | 52 | 8.0 | 9.7 | 0.00 | 0.00 | 0.00 | 53 | 1012.7 |
| 20260503130534 | 8 | 214 | 4.8 | 8.0 | 0.00 | 0.00 | 0.00 | 54 | 1012.6 |
| 20260503110424 | 7 | 240 | 4.8 | 8.0 | 0.00 | 0.00 | 0.00 | 58 | 1012.2 |
| 20260503090310 | 8 | 225 | 3.2 | 4.8 | 0.00 | 0.00 | 0.00 | 53 | 1010.6 |
| 20260503081237 | 8 | 227 | 1.6 | 3.2 | 0.00 | 0.00 | 0.00 | 51 | 1010.5 |
| 20260503080732 | 8 | 21 | 4.8 | 8.0 | 0.00 | 0.00 | 0.00 | 51 | 1010.5 |
| 20260503080230 | 8 | 211 | 1.6 | 1.6 | 0.00 | 0.00 | 0.00 | 52 | 1010.2 |
| 20260503072707 | 8 | 54 | 1.6 | 3.2 | 0.00 | 0.00 | 0.00 | 48 | 1010.3 |
| 20260503072203 | 8 | 18 | 4.8 | 8.0 | 0.00 | 0.00 | 0.00 | 47 | 1010.5 |
| 20260503071700 | 8 | 6 | 3.2 | 4.8 | 0.00 | 0.00 | 0.00 | 50 | 1010.4 |
| 20260503071157 | 8 | 265 | 1.6 | 1.6 | 0.00 | 0.00 | 0.00 | 49 | 1010.4 |
| 20260503070654 | 8 | 147 | 0.0 | 1.6 | 0.00 | 0.00 | 0.00 | 50 | 1010.3 |
| 20260503070152 | 8 | 274 | 1.6 | 1.6 | 0.00 | 0.00 | 0.00 | 50 | 1010.4 |
| 20260503060116 | 10 | 13 | 1.6 | 3.2 | 0.00 | 0.00 | 0.00 | 47 | 1010.5 |
| 20260503055108 | 10 | 234 | 1.6 | 1.6 | 0.00 | 0.00 | 0.00 | 47 | 1010.9 |
| 20260503054603 | 10 | 14 | 3.2 | 3.2 | 0.00 | 0.00 | 0.00 | 47 | 1010.8 |
| 20260503054100 | 10 | 43 | 1.6 | 1.6 | 0.00 | 0.00 | 0.00 | 47 | 1010.9 |
| 20260503053559 | 10 | 41 | 4.8 | 4.8 | 0.00 | 0.00 | 0.00 | 46 | 1010.6 |
| 20260503053056 | 10 | 145 | 1.6 | 1.6 | 0.00 | 0.00 | 0.00 | 46 | 1010.8 |
| 20260503052553 | 10 | 25 | 4.8 | 8.0 | 0.00 | 0.00 | 0.00 | 46 | 1010.8 |
| 20260503052049 | 10 | 236 | 0.0 | 1.6 | 0.00 | 0.00 | 0.00 | 46 | 1010.8 |
| 20260503051544 | 10 | 291 | 1.6 | 1.6 | 0.00 | 0.00 | 0.00 | 45 | 1010.8 |
| 20260503051043 | 10 | 249 | 1.6 | 3.2 | 0.00 | 0.00 | 0.00 | 45 | 1010.9 |
| 20260503050538 | 10 | 4 | 8.0 | 9.7 | 0.00 | 0.00 | 0.00 | 45 | 1011.0 |
| 20260503050036 | 10 | 283 | 1.6 | 1.6 | 0.00 | 0.00 | 0.00 | 45 | 1011.1 |
| 20260503045533 | 10 | 252 | 1.6 | 3.2 | 0.00 | 0.00 | 0.00 | 46 | 1010.8 |
| 20260503045030 | 10 | 266 | 3.2 | 3.2 | 0.00 | 0.00 | 0.00 | 46 | 1011.0 |
| 20260503044526 | 10 | 275 | 1.6 | 1.6 | 0.00 | 0.00 | 0.00 | 46 | 1011.2 |
| 20260503044024 | 10 | 40 | 0.0 | 0.0 | 0.00 | 0.00 | 0.00 | 46 | 1011.1 |
| 20260503043520 | 10 | 254 | 1.6 | 1.6 | 0.00 | 0.00 | 0.00 | 45 | 1011.1 |
| 20260503043017 | 10 | 190 | 0.0 | 0.0 | 0.00 | 0.00 | 0.00 | 45 | 1011.0 |
| 20260503042514 | 10 | 228 | 0.0 | 0.0 | 0.00 | 0.00 | 0.00 | 45 | 1011.0 |
| 20260503042010 | 10 | 229 | 1.6 | 1.6 | 0.00 | 0.00 | 0.00 | 46 | 1011.2 |
| 20260503041507 | 10 | 4 | 1.6 | 1.6 | 0.00 | 0.00 | 0.00 | 44 | 1011.3 |
| 20260503041005 | 10 | 282 | 1.6 | 1.6 | 0.00 | 0.00 | 0.00 | 44 | 1011.1 |
| 20260503040502 | 10 | 40 | 1.6 | 1.6 | 0.00 | 0.00 | 0.00 | 45 | 1011.3 |
| 20260503035959 | 10 | 0 | 3.2 | 3.2 | 0.00 | 0.00 | 0.00 | 45 | 1011.0 |
| 20260503035455 | 10 | 222 | 0.0 | 1.6 | 0.00 | 0.00 | 0.00 | 45 | 1011.0 |
| 20260503034954 | 10 | 92 | 0.0 | 1.6 | 0.00 | 0.00 | 0.00 | 44 | 1011.3 |
| 20260503034450 | 10 | 12 | 3.2 | 4.8 | 0.00 | 0.00 | 0.00 | 43 | 1011.1 |
| 20260503033947 | 10 | 201 | 1.6 | 1.6 | 0.00 | 0.00 | 0.00 | 45 | 1011.0 |
| 20260503033445 | 11 | 215 | 0.0 | 1.6 | 0.00 | 0.00 | 0.00 | 44 | 1011.2 |
| 20260503032943 | 11 | 41 | 0.0 | 0.0 | 0.00 | 0.00 | 0.00 | 43 | 1010.9 |
| 20260503032441 | 11 | 231 | 0.0 | 0.0 | 0.00 | 0.00 | 0.00 | 44 | 1010.9 |
| 20260503031938 | 11 | 210 | 0.0 | 0.0 | 0.00 | 0.00 | 0.00 | 43 | 1011.1 |
| 20260503031436 | 11 | 291 | 3.2 | 3.2 | 0.00 | 0.00 | 0.00 | 41 | 1011.1 |
| 20260503030932 | 11 | 19 | 4.8 | 11.3 | 0.00 | 0.00 | 0.00 | 43 | 1010.9 |
| 20260503030429 | 11 | 229 | 3.2 | 3.2 | 0.00 | 0.00 | 0.00 | 42 | 1011.0 |
| 20260503025926 | 11 | 211 | 3.2 | 3.2 | 0.00 | 0.00 | 0.00 | 43 | 1011.1 |
| 20260503025422 | 11 | 216 | 0.0 | 1.6 | 0.00 | 0.00 | 0.00 | 42 | 1010.9 |
| 20260503024920 | 11 | 206 | 1.6 | 1.6 | 0.00 | 0.00 | 0.00 | 43 | 1011.0 |
| 20260503024417 | 11 | 300 | 3.2 | 3.2 | 0.00 | 0.00 | 0.00 | 42 | 1011.2 |
| 20260503023914 | 11 | 240 | 1.6 | 3.2 | 0.00 | 0.00 | 0.00 | 42 | 1011.2 |
| 20260503023410 | 11 | 220 | 0.0 | 1.6 | 0.00 | 0.00 | 0.00 | 42 | 1011.0 |
| 20260503022907 | 11 | 19 | 6.4 | 8.0 | 0.00 | 0.00 | 0.00 | 40 | 1011.1 |
| 20260503022402 | 12 | 0 | 1.6 | 1.6 | 0.00 | 0.00 | 0.00 | 40 | 1011.0 |
| 20260503021858 | 12 | 225 | 3.2 | 3.2 | 0.00 | 0.00 | 0.00 | 41 | 1011.1 |
| 20260503021355 | 12 | 298 | 3.2 | 3.2 | 0.00 | 0.00 | 0.00 | 40 | 1011.1 |
| 20260503020852 | 12 | 220 | 3.2 | 3.2 | 0.00 | 0.00 | 0.00 | 41 | 1010.9 |
| 20260503020350 | 12 | 14 | 3.2 | 3.2 | 0.00 | 0.00 | 0.00 | 40 | 1010.9 |
| 20260503015846 | 12 | 265 | 1.6 | 3.2 | 0.00 | 0.00 | 0.00 | 40 | 1010.9 |
| 20260503015343 | 12 | 19 | 3.2 | 3.2 | 0.00 | 0.00 | 0.00 | 39 | 1011.2 |
| 20260503014839 | 12 | 277 | 1.6 | 3.2 | 0.00 | 0.00 | 0.00 | 41 | 1011.1 |
| 20260503014337 | 12 | 93 | 3.2 | 3.2 | 0.00 | 0.00 | 0.00 | 40 | 1011.2 |
| 20260503013834 | 12 | 41 | 1.6 | 1.6 | 0.00 | 0.00 | 0.00 | 39 | 1011.1 |
| 20260503013331 | 12 | 260 | 1.6 | 1.6 | 0.00 | 0.00 | 0.00 | 40 | 1011.2 |
| 20260503012828 | 12 | 221 | 0.0 | 1.6 | 0.00 | 0.00 | 0.00 | 40 | 1011.3 |
| 20260503012326 | 12 | 222 | 3.2 | 4.8 | 0.00 | 0.00 | 0.00 | 40 | 1010.9 |
| 20260503011822 | 12 | 356 | 3.2 | 3.2 | 0.00 | 0.00 | 0.00 | 39 | 1011.1 |
| 20260503011319 | 12 | 236 | 0.0 | 0.0 | 0.00 | 0.00 | 0.00 | 40 | 1011.1 |
| 20260503010816 | 12 | 253 | 0.0 | 0.0 | 0.00 | 0.00 | 0.00 | 39 | 1010.9 |
| 20260503010313 | 12 | 240 | 1.6 | 1.6 | 0.00 | 0.00 | 0.00 | 39 | 1011.1 |
| 20260503005810 | 12 | 307 | 1.6 | 1.6 | 0.00 | 0.00 | 0.00 | 39 | 1010.6 |
| 20260503005307 | 12 | 216 | 3.2 | 4.8 | 0.00 | 0.00 | 0.00 | 39 | 1010.9 |
| 20260503004803 | 12 | 221 | 1.6 | 1.6 | 0.00 | 0.00 | 0.00 | 40 | 1010.5 |
| 20260503004301 | 12 | 312 | 3.2 | 3.2 | 0.00 | 0.00 | 0.00 | 39 | 1010.5 |
| 20260503003758 | 13 | 250 | 0.0 | 1.6 | 0.00 | 0.00 | 0.00 | 40 | 1010.7 |
| 20260503003255 | 13 | 13 | 6.4 | 9.7 | 0.00 | 0.00 | 0.00 | 39 | 1010.6 |
| 20260503002752 | 13 | 42 | 3.2 | 3.2 | 0.00 | 0.00 | 0.00 | 40 | 1010.6 |
| 20260503002249 | 13 | 220 | 3.2 | 4.8 | 0.00 | 0.00 | 0.00 | 39 | 1010.4 |
| 20260503001745 | 13 | 227 | 0.0 | 1.6 | 0.00 | 0.00 | 0.00 | 41 | 1010.4 |
| 20260503001241 | 13 | 220 | 0.0 | 0.0 | 0.00 | 0.00 | 0.00 | 41 | 1010.2 |
| 20260503000739 | 13 | 229 | 0.0 | 0.0 | 0.00 | 0.00 | 0.00 | 42 | 1010.4 |
| 20260503000236 | 13 | 305 | 1.6 | 1.6 | 0.00 | 0.00 | 0.00 | 38 | 1010.4 |
| 20260502235733 | 13 | 12 | 3.2 | 4.8 | 0.00 | 0.00 | 0.00 | 37 | 1010.1 |
| 20260502235231 | 13 | 211 | 1.6 | 1.6 | 0.00 | 0.00 | 0.00 | 38 | 1010.2 |
| 20260502234727 | 13 | 226 | 1.6 | 1.6 | 0.00 | 0.00 | 0.00 | 38 | 1010.2 |
| 20260502234225 | 13 | 46 | 1.6 | 3.2 | 0.00 | 0.00 | 0.00 | 37 | 1010.2 |
| 20260502233721 | 13 | 350 | 3.2 | 3.2 | 0.00 | 0.00 | 0.00 | 37 | 1010.2 |
| 20260502233218 | 13 | 227 | 3.2 | 3.2 | 0.00 | 0.00 | 0.00 | 36 | 1010.1 |
| 20260502232713 | 14 | 43 | 0.0 | 1.6 | 0.00 | 0.00 | 0.00 | 37 | 1010.1 |
| 20260502232211 | 14 | 219 | 4.8 | 4.8 | 0.00 | 0.00 | 0.00 | 36 | 1010.4 |
| 20260502231707 | 14 | 306 | 4.8 | 4.8 | 0.00 | 0.00 | 0.00 | 36 | 1010.4 |
| 20260502231205 | 14 | 8 | 3.2 | 3.2 | 0.00 | 0.00 | 0.00 | 36 | 1010.1 |
| 20260502230704 | 14 | 61 | 3.2 | 3.2 | 0.00 | 0.00 | 0.00 | 36 | 1010.1 |
| 20260502230201 | 14 | 220 | 1.6 | 1.6 | 0.00 | 0.00 | 0.00 | 37 | 1009.9 |
| 20260502225656 | 15 | 43 | 3.2 | 4.8 | 0.00 | 0.00 | 0.00 | 37 | 1009.9 |
| 20260502225154 | 15 | 47 | 4.8 | 4.8 | 0.00 | 0.00 | 0.00 | 35 | 1010.1 |
| 20260502224650 | 15 | 40 | 4.8 | 8.0 | 0.00 | 0.00 | 0.00 | 36 | 1009.9 |
| 20260502224147 | 15 | 39 | 6.4 | 8.0 | 0.00 | 0.00 | 0.00 | 35 | 1010.0 |
| 20260502223645 | 15 | 18 | 4.8 | 8.0 | 0.00 | 0.00 | 0.00 | 35 | 1009.7 |
| 20260502223143 | 15 | 69 | 1.6 | 1.6 | 0.00 | 0.00 | 0.00 | 35 | 1009.9 |
| 20260502222640 | 15 | 324 | 3.2 | 4.8 | 0.00 | 0.00 | 0.00 | 35 | 1009.6 |
| 20260502222137 | 15 | 25 | 6.4 | 8.0 | 0.00 | 0.00 | 0.00 | 35 | 1009.8 |
| 20260502221632 | 15 | 220 | 1.6 | 1.6 | 0.00 | 0.00 | 0.00 | 39 | 1009.8 |
| 20260502221130 | 15 | 349 | 4.8 | 4.8 | 0.00 | 0.00 | 0.00 | 37 | 1010.0 |